Flag for Canada Weather past 2 weeks in Dawson Creek, British Columbia, Canada

Now
37 °F

Scattered clouds.


Feels Like: 31 °F
Forecast: 28 / 56 °F
Wind: 9 mph from South

Location: Dawson Creek Airport

Current Time: Apr 26, 2015 at 10:15:19 AM

Latest Report: Apr 26, 2015 at 9:04 AM


Visibility: 9 mi

Pressure: 30.11 "Hg

Humidity: 81%

Dew point: 32 °F

Location of Dawson CreekLocation

Historic Weather in Dawson Creek — Graph

°F

Dawson Creek temperature yesterday

Maximum temperature yesterday: 43 °F (at 4:00 PM)
Minimum temperature yesterday: 30 °F (at 4:00 AM)
Average temperature yesterday: 36 °F

Past Weeks' High & Low Weather Summary

 TemperatureHumidityPressure
High68 °F (Apr 21, 1:00 PM)100% (Apr 17, 5:00 AM)30.43 "Hg (Apr 17, 5:00 AM)
Low21 °F (Apr 13, 4:00 AM)21% (Apr 12, 6:00 PM)29.39 "Hg (Apr 11, 9:00 AM)
Average41 °F63%29.93 "Hg
* Reported Apr 11 9:00 AM — Apr 26 9:04 AM, Dawson Creek, Weather by CustomWeather, © 2015

Note: Actual official high and low records may vary slightly from our data, if they occured in-between our weather recording intervals... More about our weather records

Advertising

Dawson Creek weather history for previous 24 hours

 ConditionsComfort  
Time TempWeatherWind HumidityBarometerVisibility
9:04 AM
Sun, Apr 26
37 °FScattered clouds.9 mph81%30.11 "Hg9 mi
8:00 AM34 °FPartly sunny.8 mph93%30.10 "Hg9 mi
7:00 AM30 °FPartly sunny.3 mph93%30.11 "Hg9 mi
6:56 AM30 °FPartly sunny.3 mph93%30.11 "Hg9 mi
6:00 AM27 °FClear.No wind100%30.11 "Hg9 mi
5:00 AM27 °FClear.No wind100%30.11 "Hg9 mi
4:00 AM28 °FClear.No wind93%30.10 "Hg9 mi
3:00 AM28 °FClear.3 mph93%30.10 "Hg9 mi
2:00 AM32 °FPassing clouds.2 mph87%30.11 "Hg9 mi
1:00 AM36 °FOvercast.2 mph75%30.11 "Hg9 mi
12:00 AM34 °FOvercast.2 mph87%30.12 "Hg9 mi
11:00 PM
Sat, Apr 25
34 °FPassing clouds.No wind81%30.12 "Hg9 mi
10:00 PM36 °FClear.No wind75%30.12 "Hg9 mi
9:00 PM37 °FScattered clouds.6 mph75%30.11 "Hg9 mi
8:00 PM43 °FPartly sunny.3 mph49%30.10 "Hg9 mi
7:00 PM43 °FOvercast.5 mph46%30.10 "Hg9 mi
6:00 PM43 °FPartly sunny.No wind42%30.10 "Hg9 mi
5:00 PM43 °FSunny.2 mph46%30.11 "Hg9 mi
4:00 PM43 °FSunny.5 mph49%30.11 "Hg9 mi
3:00 PM41 °FSunny.5 mph45%30.11 "Hg9 mi
2:00 PM39 °FPartly sunny.2 mph48%30.12 "Hg9 mi
1:00 PM37 °FPartly sunny.No wind52%30.13 "Hg9 mi
12:00 PM36 °FPartly sunny.2 mph56%30.13 "Hg9 mi
11:00 AM32 °FSunny.2 mph55%30.13 "Hg9 mi
10:00 AM32 °FPassing clouds.6 mph60%30.13 "Hg9 mi
Weather by CustomWeather, © 2015

See weather overviewHow to use our weather pages